Location: Eckley Miners' Village
(40.9930°N, 75.8630°W)
Time: 11:23:24
(UTC-04:00)

Vanguard 1 Rocket - Pass Details

Date: 14 March 2026
Orbit: 654 x 4213 km, 34.3° (Epoch: 11 April)

Event Time Altitude Azimuth Distance (km) Brightness Sun altitude
Rises 12:32:32 0° 265° (W) 3,034 10.0 45.7°
Reaches altitude 10° 12:34:52 10° 252° (WSW) 2,243 9.6 45.8°
Maximum altitude 12:39:05 27° 194° (SSW) 1,685 10.1 46.0°
Drops below altitude 10° 12:45:08 10° 139° (SE) 3,295 11.0 46.2°
Sets 12:49:27 0° 129° (SE) 4,831 11.6 46.4°
